| time (UTC) | temp C | wind direction | speed KPH | gust KPH | rain 1hr cm | rain 24hr cm | rain mn cm | humidity % | barometer mb |
| 20260505051552 | 16 | 0 | 1.6 | 4.8 | 0.00 | 0.00 | 0.00 | 66 | 1010.3 |
| 20260505041556 | 16 | 235 | 3.2 | 6.4 | 0.00 | 0.00 | 0.00 | 62 | 1010.2 |
| 20260505040101 | 16 | 260 | 3.2 | 11.3 | 0.00 | 0.00 | 0.00 | 61 | 1010.1 |
| 20260505034554 | 15 | 0 | 0.0 | 6.4 | 0.00 | 0.00 | 0.00 | 63 | 1010.2 |
| 20260505033100 | 16 | 241 | 4.8 | 9.7 | 0.00 | 0.00 | 0.00 | 60 | 1009.9 |
| 20260505031555 | 16 | 231 | 3.2 | 11.3 | 0.00 | 0.00 | 0.00 | 58 | 1010.1 |
| 20260505030054 | 16 | 250 | 4.8 | 12.9 | 0.00 | 0.00 | 0.00 | 58 | 1009.9 |
| 20260505024553 | 16 | 220 | 3.2 | 9.7 | 0.00 | 0.00 | 0.00 | 57 | 1010.1 |
| 20260505023052 | 16 | 246 | 3.2 | 8.0 | 0.00 | 0.00 | 0.00 | 57 | 1010.2 |
| 20260505021553 | 16 | 212 | 4.8 | 11.3 | 0.00 | 0.00 | 0.00 | 57 | 1010.1 |
| 20260505020052 | 17 | 224 | 4.8 | 9.7 | 0.00 | 0.00 | 0.00 | 54 | 1009.9 |
| 20260505014550 | 16 | 235 | 3.2 | 8.0 | 0.00 | 0.00 | 0.00 | 57 | 1009.9 |
| 20260505013052 | 17 | 236 | 3.2 | 8.0 | 0.00 | 0.00 | 0.00 | 54 | 1009.9 |
| 20260505011557 | 17 | 252 | 6.4 | 12.9 | 0.00 | 0.00 | 0.00 | 51 | 1009.5 |
| 20260505010100 | 18 | 237 | 3.2 | 11.3 | 0.00 | 0.00 | 0.00 | 50 | 1009.4 |
| 20260505004553 | 18 | 194 | 4.8 | 11.3 | 0.00 | 0.00 | 0.00 | 50 | 1009.3 |
| 20260505003053 | 18 | 236 | 4.8 | 9.7 | 0.00 | 0.00 | 0.00 | 49 | 1009.2 |
| 20260505001554 | 18 | 213 | 3.2 | 11.3 | 0.00 | 0.00 | 0.00 | 47 | 1009.3 |
| 20260505000101 | 19 | 259 | 6.4 | 12.9 | 0.00 | 0.00 | 0.00 | 45 | 1009.1 |
| 20260504234604 | 20 | 202 | 4.8 | 11.3 | 0.00 | 0.00 | 0.00 | 43 | 1009.0 |
| 20260504233051 | 20 | 237 | 4.8 | 12.9 | 0.00 | 0.00 | 0.00 | 42 | 1008.9 |
| 20260504231552 | 21 | 267 | 4.8 | 12.9 | 0.00 | 0.00 | 0.00 | 42 | 1009.0 |
| 20260504230054 | 21 | 248 | 4.8 | 14.5 | 0.00 | 0.00 | 0.00 | 41 | 1009.0 |
| 20260504224554 | 21 | 196 | 8.0 | 16.1 | 0.00 | 0.00 | 0.00 | 42 | 1009.1 |
| 20260504223055 | 21 | 221 | 6.4 | 14.5 | 0.00 | 0.00 | 0.00 | 41 | 1009.0 |
| 20260504221555 | 21 | 256 | 9.7 | 19.3 | 0.00 | 0.00 | 0.00 | 42 | 1008.9 |
| 20260504214551 | 22 | 246 | 9.7 | 19.3 | 0.00 | 0.00 | 0.00 | 41 | 1009.1 |
| 20260504213109 | 22 | 247 | 12.9 | 20.9 | 0.00 | 0.00 | 0.00 | 40 | 1009.0 |
| 20260504211549 | 22 | 229 | 11.3 | 19.3 | 0.00 | 0.00 | 0.00 | 40 | 1009.1 |
| 20260504210059 | 22 | 271 | 6.4 | 22.5 | 0.00 | 0.00 | 0.00 | 42 | 1009.0 |
| 20260504204601 | 22 | 229 | 11.3 | 25.7 | 0.00 | 0.00 | 0.00 | 41 | 1009.1 |
| 20260504203051 | 22 | 259 | 8.0 | 17.7 | 0.00 | 0.00 | 0.00 | 41 | 1009.2 |
| 20260504201551 | 22 | 254 | 6.4 | 17.7 | 0.00 | 0.00 | 0.00 | 41 | 1009.6 |
| 20260504200053 | 22 | 177 | 9.7 | 20.9 | 0.00 | 0.00 | 0.00 | 40 | 1009.7 |
| 20260504194556 | 22 | 224 | 6.4 | 19.3 | 0.00 | 0.00 | 0.00 | 41 | 1010.0 |
| 20260504193104 | 21 | 263 | 11.3 | 22.5 | 0.00 | 0.00 | 0.00 | 41 | 1010.4 |
| 20260504191553 | 21 | 270 | 11.3 | 22.5 | 0.00 | 0.00 | 0.00 | 41 | 1010.7 |
| 20260504190105 | 21 | 286 | 12.9 | 24.1 | 0.00 | 0.00 | 0.00 | 42 | 1010.9 |
| 20260504184553 | 21 | 250 | 9.7 | 19.3 | 0.00 | 0.00 | 0.00 | 43 | 1011.1 |
| 20260504183100 | 21 | 237 | 11.3 | 24.1 | 0.00 | 0.00 | 0.00 | 43 | 1011.4 |
| 20260504181553 | 21 | 261 | 8.0 | 27.4 | 0.00 | 0.00 | 0.00 | 46 | 1011.5 |
| 20260504180132 | 20 | 265 | 9.7 | 22.5 | 0.00 | 0.00 | 0.00 | 44 | 1011.5 |
| 20260504174551 | 20 | 180 | 11.3 | 17.7 | 0.00 | 0.00 | 0.00 | 48 | 1011.6 |
| 20260504173052 | 20 | 230 | 4.8 | 19.3 | 0.00 | 0.00 | 0.00 | 46 | 1011.9 |
| 20260504171553 | 20 | 263 | 12.9 | 22.5 | 0.00 | 0.00 | 0.00 | 41 | 1011.9 |
| 20260504120149 | 8 | 0 | 0.0 | 0.0 | 0.00 | 0.00 | 0.00 | 79 | 1013.9 |
| 20260504100111 | 2 | 0 | 0.0 | 0.0 | 0.00 | 0.00 | 0.00 | 89 | 1014.2 |
| 20260504081553 | 1 | 0 | 0.0 | 0.0 | 0.00 | 0.00 | 0.00 | 90 | 1014.6 |
| 20260504060107 | 1 | 0 | 0.0 | 0.0 | 0.00 | 0.00 | 0.00 | 87 | 1014.9 |